Simultaneous Nadir Overpasses (SNOs) Predictions

Prediction of SNOs between GOES-16 and NOAA-19 Satellite Orbit:

Table of predicted SNOs for the next 14.0 days since TLE Epoch: 6/8/2024
Index Date Time (GOES-16) GOES-16 Lat,Lon NOAA-19 Lat,Lon Distance(km) Time Diff (sec)
1 06/09/2024 02:07:02 -0.06, -75.20 0.50, -72.65 291.00 80
2 06/11/2024 14:23:51 0.05, -75.22 0.53, -77.29 236.62 80
3 06/12/2024 14:14:13 0.05, -75.23 -0.14, -74.30 105.38 80
4 06/13/2024 14:01:57 0.05, -75.24 -0.87, -71.32 447.54 80
5 06/15/2024 02:31:02 -0.04, -75.26 -0.87, -78.95 420.31 80
6 06/16/2024 02:18:45 -0.04, -75.28 -0.19, -75.96 77.62 80
7 06/17/2024 02:09:07 -0.04, -75.29 0.50, -72.97 265.21 80
8 06/19/2024 14:25:55 0.04, -75.34 0.58, -77.60 259.56 80
9 06/20/2024 14:16:17 0.03, -75.35 -0.11, -74.62 83.38 80
10 06/21/2024 14:04:00 0.03, -75.37 -0.81, -71.63 426.24 80
